Location: Launois
(49.6535°N, 4.5395°E)
Time: 06:28:06
(UTC+00:00)

H-2A R/B - Pass Details

Date: 23 May 2024
Orbit: 567 x 637 km, 98.4° (Epoch: 19 June)

Event Time Altitude Azimuth Distance (km) Brightness Sun altitude
Rises 00:31:01 0° 8° (N) 2,954 7.2 -18.8°
Reaches altitude 10° 00:33:22 10° 359° (N) 2,040 5.9 -18.7°
Maximum altitude 00:37:24 35° 294° (WNW) 1,026 3.2 -18.5°
Enters shadow 00:39:21 24° 247° (WSW) 1,328 3.4 -18.4°
